Weather in Berezniki

Russia / Yaroslavl Oblast     57°09′24″N   38°53′51″E
temp.,
°C
wind,
m/s
gust,
m/s
humid.,
%
clouds,
%
prec.,
mm/h
press.,
hPa
HPBL,
m
19 april, mon
mon1900:00+5ene51187100 0.0 1026564
03:00+5e5984100 0.0 1027640
06:00+4ene5986100 0.0 1027563
09:00+4ene6967100 0.0 1027630
12:00+8e685298 0.0 10271188
15:00+9e684898 0.0 10271506
18:00+8e595196 0.0 10271576
21:00+4e5115396 0.0 1027638
20 april, tue
tue2000:00+2e5126038 0.0 1028590
03:00+1e5126667 0.0 1027471
06:000e5126797 0.0 1026518
09:00+3e61059100 0.0 1026626
12:00+7ese61051100 0.0 10241250
15:00+8ese61257100 0.1 10221421
18:00+8ese51254100 0.1 10201617
21:00+7ese71358100 0.1 10181272
21 april, wed
wed2100:00+6e71255100 0.0 10151060
03:00+1e71589100 1.6 1011890
06:000e71798100 4.7 1007846
09:00+1e61598100 9.0 1003732
12:00+3e61599100 3.1 1000993
15:00+3sse5999100 5.8 999776
18:00+2ssw61297100 0.4 1004811
21:00+2ssw51193100 0.6 10071005
22 april, thu
thu2200:00+3ssw51289100 0.1 1009822
03:00+3s5129385 0.1 1010596
06:00+3ssw51092100 0.0 1011671
09:00+4ssw41094100 0.0 1012692
12:00+6ssw5985100 0.0 1013851
15:00+8ssw5981100 0.1 1014867
18:00+8ssw4988100 0.0 1016527
21:00+5s37956 0.0 1017134
23 april, fri
fri2300:00+4s26941 0.0 101793
03:00+3s25966 0.0 101771
06:00+4sse279610 0.0 1017137
09:00+10s49795 0.0 1016468
12:00+15s611635 0.0 10151492
15:00+15s610595 0.6 10141572
18:00+14sse5116355 0.1 1014696
21:00+10sse4147883 0.1 1013399